Time,TemperatureF,DewpointF,PressureIn,WindDirection,WindDirectionDegrees,WindSpeedMPH,WindSpeedGustMPH,Humidity,HourlyPrecipIn,Conditions,Clouds,dailyrainin,SolarRadiationWatts/m^2,SoftwareType,DateUTC
2013-02-16 00:13:00,50.5,42.0,30.29,ENE,58,2.0,4.0,73,0.00,,,0.00,0,weatherlink.com 1.10,2013-02-16 08:13:00,
2013-02-16 00:28:00,50.5,42.0,30.29,ENE,63,2.0,5.0,73,0.00,,,0.00,0,weatherlink.com 1.10,2013-02-16 08:28:00,
2013-02-16 00:44:00,51.6,42.0,30.29,NE,43,3.0,8.0,70,0.00,,,0.00,0,weatherlink.com 1.10,2013-02-16 08:44:00,
2013-02-16 00:59:00,51.3,42.0,30.29,ENE,72,1.0,5.0,70,0.00,,,0.00,0,weatherlink.com 1.10,2013-02-16 08:59:00,
2013-02-16 01:14:00,50.5,42.0,30.29,ENE,71,2.0,4.0,72,0.00,,,0.00,0,weatherlink.com 1.10,2013-02-16 09:14:00,
2013-02-16 01:29:00,51.0,42.0,30.29,ENE,70,9.0,10.0,71,0.00,,,0.00,0,weatherlink.com 1.10,2013-02-16 09:29:00,
2013-02-16 01:44:00,51.2,42.0,30.29,ENE,68,2.0,6.0,70,0.00,,,0.00,0,weatherlink.com 1.10,2013-02-16 09:44:00,
2013-02-16 01:59:00,50.9,41.0,30.28,NE,39,3.0,10.0,70,0.00,,,0.00,0,weatherlink.com 1.10,2013-02-16 09:59:00,
2013-02-16 02:14:00,50.4,41.0,30.28,ENE,63,8.0,11.0,71,0.00,,,0.00,0,weatherlink.com 1.10,2013-02-16 10:14:00,
2013-02-16 02:29:00,51.1,41.0,30.27,ENE,75,4.0,9.0,69,0.00,,,0.00,0,weatherlink.com 1.10,2013-02-16 10:29:00,
2013-02-16 02:44:00,49.6,41.0,30.27,ENE,74,1.0,2.0,72,0.00,,,0.00,0,weatherlink.com 1.10,2013-02-16 10:44:00,
2013-02-16 02:59:00,48.5,41.0,30.26,ENE,74,2.0,3.0,74,0.00,,,0.00,0,weatherlink.com 1.10,2013-02-16 10:59:00,
2013-02-16 03:14:00,49.7,41.0,30.26,ESE,113,1.0,9.0,71,0.00,,,0.00,0,weatherlink.com 1.10,2013-02-16 11:14:00,
2013-02-16 03:29:00,49.5,41.0,30.25,ENE,64,5.0,9.0,72,0.00,,,0.00,0,weatherlink.com 1.10,2013-02-16 11:29:00,
2013-02-16 03:44:00,51.2,41.0,30.25,ENE,57,4.0,10.0,68,0.00,,,0.00,0,weatherlink.com 1.10,2013-02-16 11:44:00,
2013-02-16 03:59:00,49.7,41.0,30.25,NNE,32,7.0,8.0,71,0.00,,,0.00,0,weatherlink.com 1.10,2013-02-16 11:59:00,
2013-02-16 04:14:00,48.7,40.0,30.25,ENE,67,2.0,5.0,72,0.00,,,0.00,0,weatherlink.com 1.10,2013-02-16 12:14:00,
2013-02-16 04:29:00,49.6,41.0,30.24,NE,51,5.0,14.0,71,0.00,,,0.00,0,weatherlink.com 1.10,2013-02-16 12:29:00,
2013-02-16 04:44:00,51.1,41.0,30.24,ENE,73,3.0,15.0,68,0.00,,,0.00,0,weatherlink.com 1.10,2013-02-16 12:44:00,
2013-02-16 04:59:00,49.8,40.0,30.23,NNE,30,4.0,7.0,70,0.00,,,0.00,0,weatherlink.com 1.10,2013-02-16 12:59:00,
2013-02-16 05:14:00,49.9,40.0,30.24,ENE,63,1.0,4.0,69,0.00,,,0.00,0,weatherlink.com 1.10,2013-02-16 13:14:00,
2013-02-16 05:29:00,49.9,40.0,30.23,NE,42,3.0,5.0,69,0.00,,,0.00,0,weatherlink.com 1.10,2013-02-16 13:29:00,
2013-02-16 05:44:00,49.1,40.0,30.23,NNE,22,1.0,6.0,71,0.00,,,0.00,0,weatherlink.com 1.10,2013-02-16 13:44:00,
2013-02-16 05:59:00,47.9,40.0,30.23,NNE,28,7.0,9.0,74,0.00,,,0.00,0,weatherlink.com 1.10,2013-02-16 13:59:00,
2013-02-16 06:14:00,49.5,40.0,30.23,NNE,19,8.0,13.0,71,0.00,,,0.00,0,weatherlink.com 1.10,2013-02-16 14:14:00,
2013-02-16 06:29:00,48.4,40.0,30.23,NNE,29,3.0,7.0,73,0.00,,,0.00,0,weatherlink.com 1.10,2013-02-16 14:29:00,
2013-02-16 06:44:00,47.0,40.0,30.23,NNE,29,1.0,4.0,76,0.00,,,0.00,0,weatherlink.com 1.10,2013-02-16 14:44:00,
2013-02-16 06:59:00,48.3,41.0,30.23,ENE,66,3.0,11.0,75,0.00,,,0.00,0,weatherlink.com 1.10,2013-02-16 14:59:00,
2013-02-16 07:14:00,47.5,40.0,30.23,NNE,26,3.0,4.0,75,0.00,,,0.00,11,weatherlink.com 1.10,2013-02-16 15:14:00,
2013-02-16 07:29:00,46.9,40.0,30.23,NNE,32,2.0,3.0,77,0.00,,,0.00,37,weatherlink.com 1.10,2013-02-16 15:29:00,
2013-02-16 07:45:00,47.2,40.0,30.23,NNE,33,2.0,2.0,77,0.00,,,0.00,60,weatherlink.com 1.10,2013-02-16 15:45:00,
2013-02-16 08:00:00,48.5,41.0,30.24,NNE,33,0.0,6.0,76,0.00,,,0.00,70,weatherlink.com 1.10,2013-02-16 16:00:00,
2013-02-16 08:15:00,48.8,41.0,30.24,NNE,33,0.0,2.0,75,0.00,,,0.00,77,weatherlink.com 1.10,2013-02-16 16:15:00,
2013-02-16 08:30:00,47.8,41.0,30.24,NNE,33,0.0,2.0,78,0.00,,,0.00,90,weatherlink.com 1.10,2013-02-16 16:30:00,
2013-02-16 08:45:00,47.5,42.0,30.25,NE,36,1.0,3.0,80,0.00,,,0.00,135,weatherlink.com 1.10,2013-02-16 16:45:00,
2013-02-16 09:00:00,48.9,43.0,30.26,NE,36,0.0,3.0,81,0.00,,,0.00,195,weatherlink.com 1.10,2013-02-16 17:00:00,
2013-02-16 09:15:00,50.6,45.0,30.26,ENE,67,0.0,3.0,81,0.00,,,0.00,294,weatherlink.com 1.10,2013-02-16 17:15:00,
2013-02-16 09:30:00,53.5,47.0,30.26,South,173,2.0,4.0,79,0.00,,,0.00,439,weatherlink.com 1.10,2013-02-16 17:30:00,
2013-02-16 09:45:00,55.7,48.0,30.25,South,173,1.0,1.0,74,0.00,,,0.00,422,weatherlink.com 1.10,2013-02-16 17:45:00,
2013-02-16 10:00:00,58.0,48.0,30.25,South,174,2.0,3.0,69,0.00,,,0.00,450,weatherlink.com 1.10,2013-02-16 18:00:00,
2013-02-16 10:15:00,59.3,48.0,30.25,South,175,2.0,4.0,66,0.00,,,0.00,461,weatherlink.com 1.10,2013-02-16 18:15:00,
2013-02-16 10:30:00,58.8,47.0,30.26,WNW,284,2.0,7.0,65,0.00,,,0.00,526,weatherlink.com 1.10,2013-02-16 18:30:00,
2013-02-16 10:45:00,57.3,47.0,30.25,WNW,292,3.0,6.0,69,0.00,,,0.00,483,weatherlink.com 1.10,2013-02-16 18:45:00,
2013-02-16 11:00:00,58.0,47.0,30.25,West,281,4.0,6.0,68,0.00,,,0.00,608,weatherlink.com 1.10,2013-02-16 19:00:00,
2013-02-16 11:15:00,57.8,46.0,30.25,WNW,285,5.0,10.0,65,0.00,,,0.00,647,weatherlink.com 1.10,2013-02-16 19:15:00,
2013-02-16 11:30:00,57.5,47.0,30.24,WNW,290,4.0,7.0,69,0.00,,,0.00,622,weatherlink.com 1.10,2013-02-16 19:30:00,
2013-02-16 11:45:00,57.4,49.0,30.23,West,273,4.0,9.0,74,0.00,,,0.00,589,weatherlink.com 1.10,2013-02-16 19:45:00,
2013-02-16 12:00:00,56.5,49.0,30.23,NW,321,2.0,8.0,75,0.00,,,0.00,571,weatherlink.com 1.10,2013-02-16 20:00:00,
2013-02-16 12:15:00,57.1,50.0,30.22,West,277,4.0,7.0,77,0.00,,,0.00,610,weatherlink.com 1.10,2013-02-16 20:15:00,
2013-02-16 12:30:00,56.9,50.0,30.22,West,279,4.0,7.0,77,0.00,,,0.00,633,weatherlink.com 1.10,2013-02-16 20:30:00,
2013-02-16 12:45:00,58.1,50.0,30.21,West,267,4.0,6.0,75,0.00,,,0.00,664,weatherlink.com 1.10,2013-02-16 20:45:00,
2013-02-16 13:00:00,59.4,50.0,30.20,WSW,244,1.0,4.0,71,0.00,,,0.00,657,weatherlink.com 1.10,2013-02-16 21:00:00,
2013-02-16 13:15:00,60.0,50.0,30.19,WSW,244,1.0,5.0,70,0.00,,,0.00,626,weatherlink.com 1.10,2013-02-16 21:15:00,
2013-02-16 13:31:00,60.6,49.0,30.19,WSW,241,2.0,5.0,66,0.00,,,0.00,578,weatherlink.com 1.10,2013-02-16 21:31:00,
2013-02-16 13:46:00,60.6,50.0,30.19,WSW,238,4.0,5.0,68,0.00,,,0.00,536,weatherlink.com 1.10,2013-02-16 21:46:00,
2013-02-16 14:01:00,60.6,49.0,30.18,WSW,238,0.0,5.0,66,0.00,,,0.00,571,weatherlink.com 1.10,2013-02-16 22:01:00,
2013-02-16 14:16:00,60.4,50.0,30.17,NW,307,4.0,8.0,69,0.00,,,0.00,561,weatherlink.com 1.10,2013-02-16 22:16:00,
2013-02-16 14:31:00,60.5,50.0,30.17,WNW,299,5.0,10.0,68,0.00,,,0.00,541,weatherlink.com 1.10,2013-02-16 22:31:00,
2013-02-16 14:46:00,-999.0,-99.9,30.17,WNW,284,6.0,13.0,-999,0.00,,,0.00,,weatherlink.com 1.10,2013-02-16 22:46:00,
2013-02-16 15:01:00,-999.0,-99.9,30.16,WNW,297,5.0,11.0,-999,0.00,,,0.00,,weatherlink.com 1.10,2013-02-16 23:01:00,
2013-02-16 15:16:00,-999.0,-99.9,30.16,WNW,282,8.0,11.0,-999,0.00,,,0.00,,weatherlink.com 1.10,2013-02-16 23:16:00,
2013-02-16 15:31:00,-999.0,-99.9,30.16,West,277,5.0,13.0,-999,0.00,,,0.00,,weatherlink.com 1.10,2013-02-16 23:31:00,
2013-02-16 15:46:00,-999.0,-99.9,30.16,West,275,4.0,16.0,-999,0.00,,,0.00,,weatherlink.com 1.10,2013-02-16 23:46:00,
2013-02-16 16:01:00,-999.0,-99.9,30.15,WNW,288,4.0,11.0,-999,0.00,,,0.00,,weatherlink.com 1.10,2013-02-17 00:01:00,
2013-02-16 16:16:00,-999.0,-99.9,30.15,WNW,282,7.0,12.0,-999,0.00,,,0.00,,weatherlink.com 1.10,2013-02-17 00:16:00,
2013-02-16 16:31:00,-999.0,-99.9,30.15,NNE,21,0.0,10.0,-999,0.00,,,0.00,,weatherlink.com 1.10,2013-02-17 00:31:00,
2013-02-16 16:46:00,-999.0,-99.9,30.15,NW,325,3.0,14.0,-999,0.00,,,0.00,,weatherlink.com 1.10,2013-02-17 00:46:00,
2013-02-16 17:01:00,-999.0,-99.9,30.15,NNW,331,0.0,11.0,-999,0.00,,,0.00,,weatherlink.com 1.10,2013-02-17 01:01:00,
2013-02-16 17:16:00,-999.0,-99.9,30.15,West,273,9.0,13.0,-999,0.00,,,0.00,,weatherlink.com 1.10,2013-02-17 01:16:00,
2013-02-16 17:31:00,50.4,47.0,30.14,NNW,336,5.0,11.0,87,0.00,,,0.00,25,weatherlink.com 1.10,2013-02-17 01:31:00,
2013-02-16 17:47:00,49.8,47.0,30.14,North,355,6.0,10.0,89,0.00,,,0.00,11,weatherlink.com 1.10,2013-02-17 01:47:00,
2013-02-16 18:02:00,49.1,46.0,30.15,North,355,6.0,10.0,89,0.00,,,0.00,0,weatherlink.com 1.10,2013-02-17 02:02:00,
2013-02-16 18:17:00,48.7,46.0,30.14,North,5,6.0,12.0,90,0.00,,,0.00,0,weatherlink.com 1.10,2013-02-17 02:17:00,
2013-02-16 18:32:00,48.4,46.0,30.14,NW,326,2.0,11.0,91,0.00,,,0.00,0,weatherlink.com 1.10,2013-02-17 02:32:00,
2013-02-16 18:47:00,48.2,46.0,30.14,NNW,344,3.0,8.0,91,0.00,,,0.00,0,weatherlink.com 1.10,2013-02-17 02:47:00,
2013-02-16 19:02:00,47.9,46.0,30.15,NNW,346,3.0,8.0,91,0.00,,,0.00,0,weatherlink.com 1.10,2013-02-17 03:02:00,
2013-02-16 19:17:00,47.8,45.0,30.15,North,350,3.0,7.0,91,0.00,,,0.00,0,weatherlink.com 1.10,2013-02-17 03:17:00,
2013-02-16 19:32:00,47.4,45.0,30.15,North,350,1.0,2.0,91,0.00,,,0.00,0,weatherlink.com 1.10,2013-02-17 03:32:00,
2013-02-16 19:47:00,46.8,44.0,30.15,North,350,2.0,4.0,91,0.00,,,0.00,0,weatherlink.com 1.10,2013-02-17 03:47:00,
2013-02-16 20:02:00,46.2,44.0,30.14,North,350,1.0,5.0,91,0.00,,,0.00,0,weatherlink.com 1.10,2013-02-17 04:02:00,
2013-02-16 20:17:00,44.7,42.0,30.14,North,350,2.0,3.0,91,0.00,,,0.00,0,weatherlink.com 1.10,2013-02-17 04:17:00,
2013-02-16 20:32:00,44.0,42.0,30.14,North,350,1.0,2.0,91,0.00,,,0.00,0,weatherlink.com 1.10,2013-02-17 04:32:00,
2013-02-16 20:47:00,43.4,41.0,30.14,North,350,1.0,2.0,91,0.00,,,0.00,0,weatherlink.com 1.10,2013-02-17 04:47:00,
2013-02-16 21:02:00,43.2,41.0,30.14,North,350,0.0,3.0,92,0.00,,,0.00,0,weatherlink.com 1.10,2013-02-17 05:02:00,
2013-02-16 21:17:00,42.9,41.0,30.15,North,350,1.0,3.0,92,0.00,,,0.00,0,weatherlink.com 1.10,2013-02-17 05:17:00,
2013-02-16 21:32:00,42.8,41.0,30.15,North,350,0.0,2.0,93,0.00,,,0.00,0,weatherlink.com 1.10,2013-02-17 05:32:00,
2013-02-16 21:47:00,43.6,42.0,30.15,North,350,1.0,3.0,94,0.00,,,0.00,0,weatherlink.com 1.10,2013-02-17 05:47:00,
2013-02-16 22:02:00,43.1,41.0,30.14,North,350,1.0,3.0,93,0.00,,,0.00,0,weatherlink.com 1.10,2013-02-17 06:02:00,
2013-02-16 22:17:00,42.5,41.0,30.14,North,350,0.0,2.0,93,0.00,,,0.00,0,weatherlink.com 1.10,2013-02-17 06:17:00,
2013-02-16 22:32:00,42.2,41.0,30.15,North,350,0.0,4.0,94,0.00,,,0.00,0,weatherlink.com 1.10,2013-02-17 06:32:00,
2013-02-16 22:47:00,42.4,41.0,30.14,North,350,0.0,3.0,93,0.00,,,0.00,0,weatherlink.com 1.10,2013-02-17 06:47:00,
2013-02-16 23:02:00,42.6,41.0,30.14,North,350,0.0,2.0,94,0.00,,,0.00,0,weatherlink.com 1.10,2013-02-17 07:02:00,
2013-02-16 23:17:00,43.1,42.0,30.14,North,350,0.0,2.0,94,0.00,,,0.00,0,weatherlink.com 1.10,2013-02-17 07:17:00,
2013-02-16 23:32:00,42.5,41.0,30.13,North,355,3.0,4.0,94,0.00,,,0.00,0,weatherlink.com 1.10,2013-02-17 07:32:00,
2013-02-16 23:47:00,42.9,41.0,30.13,North,355,0.0,3.0,94,0.00,,,0.00,0,weatherlink.com 1.10,2013-02-17 07:47:00,